Time,TemperatureF,DewpointF,PressureIn,WindDirection,WindDirectionDegrees,WindSpeedMPH,WindSpeedGustMPH,Humidity,HourlyPrecipIn,Conditions,Clouds,dailyrainin,SoftwareType,DateUTC
2015-05-29 00:04:00,61.8,60.4,30.20,WSW,249,2.0,3.5,95,0.00,CLR,,0.00,WeatherDisplay:10.37,2015-05-29 04:04:00,
2015-05-29 00:09:00,61.8,60.4,30.20,West,263,1.7,4.0,95,0.00,CLR,,0.00,WeatherDisplay:10.37,2015-05-29 04:09:00,
2015-05-29 00:14:00,61.7,60.3,30.20,SW,228,4.1,6.9,95,0.00,CLR,,0.00,WeatherDisplay:10.37,2015-05-29 04:14:00,
2015-05-29 00:19:00,61.7,60.3,30.20,SSW,197,1.4,6.9,95,0.00,CLR,,0.00,WeatherDisplay:10.37,2015-05-29 04:19:00,
2015-05-29 00:24:00,61.6,60.2,30.20,West,260,2.7,4.0,95,0.00,CLR,,0.00,WeatherDisplay:10.37,2015-05-29 04:24:00,
2015-05-29 00:29:00,61.6,60.2,30.20,SW,234,0.9,3.5,95,0.00,CLR,,0.00,WeatherDisplay:10.37,2015-05-29 04:29:00,
2015-05-29 00:34:00,61.6,60.2,30.20,West,267,4.3,4.3,95,0.00,CLR,,0.00,WeatherDisplay:10.37,2015-05-29 04:34:00,
2015-05-29 00:39:00,61.5,60.1,30.20,SW,229,2.1,3.5,95,0.00,CLR,,0.00,WeatherDisplay:10.37,2015-05-29 04:39:00,
2015-05-29 00:44:00,61.4,60.2,30.20,West,260,1.1,2.3,96,0.00,CLR,,0.00,WeatherDisplay:10.37,2015-05-29 04:44:00,
2015-05-29 00:49:00,61.4,60.2,30.20,WSW,250,3.4,4.6,96,0.00,CLR,,0.00,WeatherDisplay:10.37,2015-05-29 04:49:00,
2015-05-29 00:54:00,61.4,60.2,30.20,WSW,253,2.0,3.5,96,0.00,CLR,,0.00,WeatherDisplay:10.37,2015-05-29 04:54:00,
2015-05-29 00:59:00,61.3,60.2,30.20,West,262,1.0,3.5,96,0.00,CLR,,0.00,WeatherDisplay:10.37,2015-05-29 04:59:00,
2015-05-29 01:04:00,61.3,60.2,30.20,West,266,1.2,3.5,96,0.00,CLR,,0.00,WeatherDisplay:10.37,2015-05-29 05:04:00,
2015-05-29 01:09:00,61.3,60.2,30.20,WSW,243,0.0,1.2,96,0.00,CLR,,0.00,WeatherDisplay:10.37,2015-05-29 05:09:00,
2015-05-29 01:14:00,61.4,60.2,30.20,West,262,1.0,3.5,96,0.00,CLR,,0.00,WeatherDisplay:10.37,2015-05-29 05:14:00,
2015-05-29 01:19:00,61.4,60.2,30.20,WSW,256,0.8,3.5,96,0.00,CLR,,0.00,WeatherDisplay:10.37,2015-05-29 05:19:00,
2015-05-29 01:24:00,61.4,60.2,30.19,West,260,1.8,2.3,96,0.00,CLR,,0.00,WeatherDisplay:10.37,2015-05-29 05:24:00,
2015-05-29 01:29:00,61.4,60.2,30.19,West,260,0.0,1.2,96,0.00,CLR,,0.00,WeatherDisplay:10.37,2015-05-29 05:29:00,
2015-05-29 01:34:00,61.4,60.2,30.20,West,260,0.3,2.3,96,0.00,CLR,,0.00,WeatherDisplay:10.37,2015-05-29 05:34:00,
2015-05-29 01:39:00,61.5,60.3,30.20,WSW,241,0.4,3.5,96,0.00,CLR,,0.00,WeatherDisplay:10.37,2015-05-29 05:39:00,
2015-05-29 01:44:00,61.4,60.2,30.20,WSW,241,0.3,2.3,96,0.00,CLR,,0.00,WeatherDisplay:10.37,2015-05-29 05:44:00,
2015-05-29 01:49:00,61.4,60.2,30.20,WSW,241,0.0,1.2,96,0.00,CLR,,0.00,WeatherDisplay:10.37,2015-05-29 05:49:00,
2015-05-29 01:54:00,61.4,60.2,30.20,WSW,241,0.0,0.0,96,0.00,CLR,,0.00,WeatherDisplay:10.37,2015-05-29 05:54:00,
2015-05-29 01:59:00,61.3,60.2,30.20,WSW,241,0.0,0.0,96,0.00,CLR,,0.00,WeatherDisplay:10.37,2015-05-29 05:59:00,
2015-05-29 02:04:00,61.1,60.0,30.20,WSW,241,0.1,0.0,96,0.00,CLR,,0.00,WeatherDisplay:10.37,2015-05-29 06:04:00,
2015-05-29 02:09:00,61.0,59.9,30.20,WSW,241,0.0,1.2,96,0.00,CLR,,0.00,WeatherDisplay:10.37,2015-05-29 06:09:00,
2015-05-29 02:14:00,60.9,59.8,30.20,WSW,241,0.0,2.3,96,0.00,CLR,,0.00,WeatherDisplay:10.37,2015-05-29 06:14:00,
2015-05-29 02:19:00,60.8,59.7,30.20,WSW,241,0.0,0.0,96,0.00,CLR,,0.00,WeatherDisplay:10.37,2015-05-29 06:19:00,
2015-05-29 02:24:00,60.7,59.6,30.20,WSW,241,0.0,0.0,96,0.00,CLR,,0.00,WeatherDisplay:10.37,2015-05-29 06:24:00,
2015-05-29 02:29:00,60.5,59.4,30.20,WSW,241,0.0,0.0,96,0.00,CLR,,0.00,WeatherDisplay:10.37,2015-05-29 06:29:00,
2015-05-29 02:34:00,60.3,59.2,30.20,WSW,241,0.0,0.0,96,0.00,CLR,,0.00,WeatherDisplay:10.37,2015-05-29 06:34:00,
2015-05-29 02:39:00,60.1,59.0,30.20,WSW,241,0.0,0.0,96,0.00,CLR,,0.00,WeatherDisplay:10.37,2015-05-29 06:39:00,
2015-05-29 02:44:00,60.0,58.9,30.20,WSW,241,0.0,0.0,96,0.00,CLR,,0.00,WeatherDisplay:10.37,2015-05-29 06:44:00,
2015-05-29 02:49:00,59.8,58.7,30.20,WSW,241,0.0,0.0,96,0.00,CLR,,0.00,WeatherDisplay:10.37,2015-05-29 06:49:00,
2015-05-29 02:54:00,59.7,58.6,30.20,WSW,241,0.0,0.0,96,0.00,CLR,,0.00,WeatherDisplay:10.37,2015-05-29 06:54:00,
2015-05-29 02:59:00,59.6,58.5,30.20,WSW,241,0.0,0.0,96,0.00,CLR,,0.00,WeatherDisplay:10.37,2015-05-29 06:59:00,
2015-05-29 03:04:00,59.4,58.3,30.20,WSW,241,0.0,0.0,96,0.00,CLR,,0.00,WeatherDisplay:10.37,2015-05-29 07:04:00,
2015-05-29 03:09:00,59.2,58.1,30.20,WSW,241,0.0,0.0,96,0.00,CLR,,0.00,WeatherDisplay:10.37,2015-05-29 07:09:00,
2015-05-29 03:14:00,59.0,57.9,30.20,WSW,241,0.0,0.0,96,0.00,CLR,,0.00,WeatherDisplay:10.37,2015-05-29 07:14:00,
2015-05-29 03:19:00,58.8,57.7,30.21,WSW,241,0.0,0.0,96,0.00,CLR,,0.00,WeatherDisplay:10.37,2015-05-29 07:19:00,
2015-05-29 03:24:00,58.6,57.5,30.20,WSW,241,0.0,0.0,96,0.00,CLR,,0.00,WeatherDisplay:10.37,2015-05-29 07:24:00,
2015-05-29 03:29:00,58.5,57.4,30.21,WSW,241,0.0,0.0,96,0.00,CLR,,0.00,WeatherDisplay:10.37,2015-05-29 07:29:00,
2015-05-29 03:34:00,58.4,57.3,30.21,WSW,241,0.0,0.0,96,0.00,CLR,,0.00,WeatherDisplay:10.37,2015-05-29 07:34:00,
2015-05-29 03:39:00,58.2,57.1,30.21,WSW,241,0.0,0.0,96,0.00,CLR,,0.00,WeatherDisplay:10.37,2015-05-29 07:39:00,
2015-05-29 03:44:00,58.1,57.0,30.21,WSW,241,0.0,0.0,96,0.00,CLR,,0.00,WeatherDisplay:10.37,2015-05-29 07:44:00,
2015-05-29 03:49:00,58.0,56.9,30.21,WSW,241,0.0,0.0,96,0.00,CLR,,0.00,WeatherDisplay:10.37,2015-05-29 07:49:00,
2015-05-29 03:54:00,57.9,56.8,30.21,WSW,241,0.0,0.0,96,0.00,CLR,,0.00,WeatherDisplay:10.37,2015-05-29 07:54:00,
2015-05-29 03:59:00,57.7,56.6,30.22,WSW,241,0.0,0.0,96,0.00,CLR,,0.00,WeatherDisplay:10.37,2015-05-29 07:59:00,
2015-05-29 04:04:00,57.6,56.5,30.22,WSW,241,0.0,0.0,96,0.00,CLR,,0.00,WeatherDisplay:10.37,2015-05-29 08:04:00,
2015-05-29 04:09:00,57.5,56.4,30.21,WSW,241,0.0,0.0,96,0.00,CLR,,0.00,WeatherDisplay:10.37,2015-05-29 08:09:00,
2015-05-29 04:14:00,57.3,56.2,30.21,WSW,241,0.0,0.0,96,0.00,CLR,,0.00,WeatherDisplay:10.37,2015-05-29 08:14:00,
2015-05-29 04:19:00,57.2,56.1,30.22,WSW,241,0.0,0.0,96,0.00,CLR,,0.00,WeatherDisplay:10.37,2015-05-29 08:19:00,